Tracking 29487 objects as of 11-Sep-2024
HD Live streaming from Space Station
objects crossing your sky now

COSMOS 1408 DEB

Track COSMOS 1408 DEB now!
10-day predictions


NORAD ID: 51225
Int'l Code: 1982-092BBB
Perigee: 326.2 km
Apogee: 364.6 km
Inclination: 82.5 °
Period: 91.3 minutes
Semi major axis: 6716 km
RCS: Unknown
Launch date: September 16, 1982
Source: Commonwealth of Independent States (former USSR) (CIS)
Launch site: PLESETSK MISSILE AND SPACE COMPLEX (PKMTR)

Note: This is SATELLITE DEBRIS
Your satellite tracking list
Your tracking list is empty




NASA's NSSDC Master Catalog

Two Line Element Set (TLE):
1 51225U 82092BBB 24253.99060733  .00250201  00000-0  14535-2 0  9999
2 51225  82.4520 151.3058 0028621  61.9956 298.4200 15.77234565150406
Source of the keplerian elements: AFSPC